Tracking 19908 objects as of 19-Oct-2019
HD Live streaming from Space Station
objects crossing your sky now

MICROSAT-R DEB

Track MICROSAT-R DEB now!
10-day predictions


NORAD ID: 44166
Int'l Code: 2019-006BD
Perigee: 283.5 km
Apogee: 1,358.7 km
Inclination: 95.7 °
Period: 101.2 minutes
Semi major axis: 7192 km
RCS: Unknown
Launch date: January 24, 2019
Source: India (IND)
Launch site: SRIHARIKOTA (SRI)

Note: This is SATELLITE DEBRIS
aabbcc
Your satellite tracking list
Your tracking list is empty




NASA's NSSDC Master Catalog

Two Line Element Set (TLE):
1 44166U 19006BD  19291.77297874  .00279711  10839-4  42414-2 0  9999
2 44166  95.6701 126.5915 0747479 131.4899 235.2969 14.23365132 27659
Source of the keplerian elements: AFSPC